Wind_Speed
9 6 8 10 12 12 13 14 14 18 17 13 19 23 17 16 15 16 13 11 10 10 10 11 11 9 10 7 7 9 7 4 3 3 3 4 4 5 8 6 6 7 6
13 9 8 10 12 12 13 13 13 16 15 12 17 23 17 12 14 14 12 10 10 12 9 10 12 13 12 9 7 6 6 6 1 1 3 2 8 2 2 4 6 7 7
16 13 11 11 13 12 11 15 15 16 18 18 22 20 14 12 12 10 11 13 9 8 9 10 11 9 11 10 7 7 6 5 2 1 2 2 1 2 5 3 3 5 5
20 18 13 14 13 12 11 13 19 19 20 20 19 17 17 16 13 13 13 12 11 9 8 11 11 11 10 9 8 7 6 6 4 2 2 2 1 3 4 5 3 3 4
22 19 16 14 11 15 12 13 18 19 19 19 16 16 16 16 16 14 10 11 12 11 10 12 11 13 11 10 9 9 8 9 7 4 3 1 1 1 2 1 6 6 5
24 20 18 16 17 16 14 15 14 15 16 17 17 17 16 15 16 16 15 13 13 12 12 11 11 11 10 10 9 9 10 12 9 7 4 5 2 3 2 2 5 6 12
26 26 26 23 19 19 15 14 12 12 12 14 15 15 16 15 15 16 17 15 13 13 13 12 10 11 11 10 9 9 9 11 9 9 8 6 7 5 5 4 5 4 8
27 26 28 25 21 18 15 16 14 12 11 11 13 15 16 18 18 19 19 16 17 16 16 12 10 11 11 11 10 11 10 10 11 12 10 7 7 7 6 6 6 6 6
28 30 26 26 22 18 18 16 16 17 15 12 13 13 16 18 19 20 21 20 19 20 17 14 12 12 11 10 11 10 9 12 12 13 13 10 10 11 10 8 6 6 6
21 30 30 29 25 21 19 20 19 19 17 16 15 15 16 17 19 22 23 23 22 21 20 16 16 15 12 11 11 11 12 10 10 11 12 13 14 12 11 9 7 7 6
10 24 25 27 26 26 24 22 22 23 21 20 20 18 18 18 18 21 22 22 23 22 21 20 18 18 17 16 15 15 14 14 12 12 11 12 13 13 11 10 9 8 7
8 14 20 21 24 25 24 23 23 23 23 24 21 19 20 21 19 18 20 21 22 21 22 22 21 20 20 20 18 18 19 18 17 16 14 13 13 13 13 12 11 11 11
5 10 14 15 18 19 21 22 24 19 24 21 20 24 24 23 22 20 20 21 21 21 22 23 23 22 22 21 21 20 21 21 19 18 18 18 18 15 15 15 14 13 13
6 7 9 12 12 17 21 21 22 24 26 26 24 26 27 28 26 25 23 22 21 19 21 22 23 23 25 26 25 25 25 22 21 19 19 20 20 19 19 18 16 15 14
12 9 10 11 15 15 19 21 22 23 24 25 24 23 27 28 30 32 30 29 27 24 22 23 25 25 27 27 28 27 27 25 25 23 21 20 22 22 21 21 20 18 17
16 13 11 9 10 10 12 14 15 15 16 18 19 20 23 26 27 26 27 31 32 30 30 32 29 26 27 28 28 28 28 27 24 27 25 22 22 23 23 23 23 22 22
18 15 12 11 10 10 12 12 12 10 10 11 13 13 14 17 19 20 22 26 29 34 32 31 32 34 34 31 28 29 28 27 26 26 24 24 24 24 24 23 24 24 24
19 18 16 12 11 12 13 11 9 8 5 4 5 9 13 15 16 16 17 20 25 31 36 38 40 36 34 30 27 28 29 27 26 24 24 25 26 27 27 26 27 26 28
15 17 18 13 12 14 13 11 8 6 3 3 4 6 9 14 16 17 18 19 17 22 24 29 31 31 27 27 26 28 28 27 26 25 25 26 26 26 27 29 30 30 30
19 21 20 13 12 16 14 12 10 8 7 8 8 7 7 10 13 15 17 17 16 16 18 23 22 24 27 27 27 28 27 26 25 25 26 27 29 30 29 31 32 33 31
23 24 23 16 13 16 17 15 13 10 9 11 12 13 11 11 12 13 14 15 15 14 13 13 17 18 27 34 30 26 26 28 25 27 28 30 31 33 34 34 34 33 35
22 24 26 23 18 13 16 16 15 12 12 13 16 14 12 12 13 13 14 15 15 13 10 10 12 17 19 21 28 31 29 29 30 31 34 36 37 39 40 41 40 39 39
18 24 34 31 25 17 15 15 15 14 14 16 19 15 13 12 12 13 13 14 17 18 16 14 12 10 9 14 20 26 30 33 31 30 30 31 31 35 43 46 43 42 43
23 27 37 39 33 25 19 17 16 15 15 16 17 14 13 13 13 12 12 12 13 17 20 20 19 17 16 16 16 17 17 19 21 22 24 26 28 28 25 30 40 43 46
18 26 38 45 38 31 23 22 19 16 15 17 15 12 12 12 12 11 11 12 12 13 15 16 17 17 17 17 17 17 17 17 18 21 23 26 29 31 32 32 34 37 40
18 22 41 48 40 35 28 26 22 18 15 16 15 11 9 11 13 13 12 11 11 11 12 12 12 13 14 14 14 14 15 18 20 21 23 23 24 25 27 30 33 34 36
Wind_Direction
224 213 202 194 175 154 138 130 124 149 136 170 178 171 159 174 177 176 179 179 189 199 210 210 209 216 224 236 242 251 274 302 324 33 325 77 9 2 44 64 57 33 30
211 212 205 198 188 184 177 164 158 155 144 150 171 171 163 173 188 188 197 202 198 207 217 229 229 237 239 240 240 247 279 291 311 67 80 300 343 58 57 56 42 26 34
212 221 203 193 193 196 189 183 177 177 183 166 161 167 188 208 198 198 208 204 196 200 219 221 227 242 229 241 245 266 270 271 271 227 119 126 248 279 307 312 306 353 23
203 207 202 197 202 200 204 197 183 182 184 191 190 193 192 189 192 207 210 214 213 212 212 222 245 224 231 235 245 258 274 264 275 263 23 111 217 180 285 310 284 332 342
210 207 208 205 194 208 216 214 193 185 191 199 199 199 204 208 204 195 209 219 229 221 224 236 242 224 231 238 253 266 273 272 261 251 256 249 342 276 196 233 324 324 300
211 209 201 200 202 199 206 214 215 204 203 203 204 203 203 209 213 213 218 217 230 235 237 240 231 235 239 243 250 263 267 262 260 263 260 259 247 279 253 270 306 280 286
207 206 202 200 203 207 206 204 214 216 212 212 209 210 211 210 209 210 209 211 223 229 233 241 241 243 251 253 251 256 270 261 257 263 262 257 260 284 291 273 262 286 285
204 206 209 211 210 213 212 215 213 219 216 217 219 214 221 218 217 213 219 225 228 228 228 233 236 240 245 248 246 256 262 257 260 254 255 250 251 265 285 293 295 288 309
209 205 206 206 208 207 213 216 219 221 222 218 223 221 221 227 222 224 227 229 228 231 226 227 225 233 235 249 260 254 258 274 271 253 236 237 251 255 270 285 287 283 284
214 207 205 206 206 208 211 215 218 220 220 223 223 228 230 230 231 229 229 234 234 233 235 229 222 222 221 233 247 252 254 262 270 261 244 240 244 258 263 275 286 277 273
202 207 205 204 206 206 209 216 221 223 223 225 227 233 235 235 232 236 237 236 236 240 240 239 229 227 223 222 226 237 246 252 254 262 265 252 248 245 257 266 269 266 260
169 192 193 200 208 210 215 219 219 227 230 232 229 234 233 235 236 238 241 243 241 242 246 244 234 234 237 238 232 234 240 243 248 253 256 261 251 244 249 254 263 263 262
147 170 186 200 208 213 219 221 228 232 223 219 234 242 242 241 239 238 243 247 246 244 243 247 249 244 246 243 244 241 246 245 252 252 257 255 260 252 250 253 259 268 273
204 207 201 216 228 232 231 231 232 227 227 237 242 238 237 240 241 242 246 250 248 250 255 256 255 252 251 253 253 248 247 250 253 258 265 260 256 253 257 257 257 261 265
215 221 225 241 245 244 234 235 232 232 233 236 230 234 239 241 246 249 248 246 249 253 252 260 261 260 255 253 254 257 259 262 255 254 269 263 258 261 258 261 263 261 262
219 221 227 243 250 236 229 221 218 221 226 231 246 254 248 241 243 249 250 245 245 250 260 262 257 258 260 256 254 257 259 259 257 260 272 270 264 264 265 263 266 267 264
225 223 229 242 249 225 213 203 199 202 212 228 242 248 246 239 241 246 249 250 251 251 257 255 261 260 259 253 250 251 255 257 256 258 265 266 271 268 265 265 266 269 271
228 227 221 232 240 213 197 194 182 174 179 200 241 247 244 243 246 249 251 254 255 258 261 255 256 263 246 245 249 251 253 257 258 262 265 266 266 269 270 269 268 267 267
227 221 221 236 221 204 197 193 196 206 225 288 312 273 248 244 246 250 253 254 262 263 268 257 262 240 232 243 247 251 252 254 260 264 266 267 268 267 266 269 272 273 275
217 213 222 235 214 202 204 205 218 241 264 304 317 308 278 257 247 246 248 253 260 270 270 252 245 234 234 243 244 246 251 255 260 265 268 268 268 269 268 268 272 274 274
224 215 214 225 220 207 212 218 228 244 271 301 312 312 301 281 256 250 252 254 264 269 267 249 244 252 246 238 240 247 256 261 263 266 269 272 271 270 270 271 270 273 273
239 226 224 218 218 212 217 225 238 254 273 293 308 308 292 283 270 255 250 247 247 254 258 247 257 257 259 253 245 251 259 264 266 262 267 274 275 274 270 271 272 270 269
241 232 225 223 220 214 226 229 243 258 274 289 303 301 291 276 267 260 254 248 242 240 244 249 256 266 268 258 256 258 262 267 267 266 270 272 278 282 269 263 264 265 266
259 255 225 219 220 217 218 232 240 253 268 285 296 294 292 282 273 263 259 257 248 241 245 253 259 259 258 259 261 266 271 273 274 274 278 282 286 293 296 277 269 269 268
265 254 223 213 216 217 215 228 236 251 267 286 292 293 292 283 273 268 263 257 251 247 242 244 251 255 257 259 261 263 265 269 275 282 286 288 290 290 291 287 283 279 278
260 252 210 207 211 215 211 221 229 244 263 283 284 283 282 280 278 273 264 256 252 244 241 241 241 244 248 252 255 262 270 279 285 289 292 295 299 299 295 289 286 284 281
Height
3180 3179 3180 3181 3182 3182 3183 3183 3184 3186 3189 3192 3195 3198 3201 3204 3206 3209 3211 3213 3216 3218 3220 3222 3224 3225 3227 3228 3228 3229 3230 3230 3230 3230 3232 3229 3229 3228 3227 3227 3227 3227 3226
3180 3178 3179 3180 3181 3183 3184 3185 3187 3189 3190 3192 3195 3198 3201 3204 3208 3210 3211 3213 3215 3216 3219 3221 3223 3225 3226 3227 3228 3229 3229 3229 3229 3229 3230 3233 3230 3230 3229 3228 3228 3228 3227
3179 3177 3178 3179 3180 3181 3184 3186 3187 3189 3193 3195 3198 3200 3203 3205 3208 3209 3211 3212 3214 3215 3218 3220 3221 3223 3225 3226 3228 3228 3228 3228 3229 3229 3230 3230 3231 3231 3229 3229 3229 3229 3228
3174 3176 3176 3177 3179 3180 3182 3185 3186 3189 3192 3195 3198 3201 3203 3205 3207 3208 3209 3211 3213 3215 3216 3218 3220 3221 3223 3225 3226 3228 3228 3228 3228 3228 3229 3229 3230 3234 3231 3230 3229 3229 3228
3171 3172 3174 3176 3178 3179 3181 3183 3185 3187 3190 3193 3196 3199 3202 3204 3205 3206 3208 3210 3212 3214 3215 3217 3218 3219 3220 3222 3224 3225 3226 3226 3227 3227 3228 3228 3229 3229 3232 3234 3229 3229 3228
3168 3169 3173 3174 3176 3177 3179 3181 3184 3185 3188 3191 3194 3196 3199 3202 3203 3205 3206 3209 3211 3212 3214 3215 3217 3218 3219 3220 3221 3223 3224 3225 3225 3226 3226 3227 3229 3232 3231 3232 3231 3230 3227
3163 3165 3168 3171 3173 3175 3178 3180 3182 3184 3186 3188 3191 3193 3196 3198 3200 3202 3204 3207 3208 3209 3212 3213 3214 3216 3217 3218 3219 3220 3222 3223 3223 3224 3223 3225 3226 3227 3227 3227 3230 3228 3228
3159 3162 3165 3168 3171 3174 3176 3178 3180 3183 3185 3187 3189 3191 3193 3195 3197 3199 3202 3204 3205 3207 3208 3210 3212 3214 3216 3216 3217 3218 3219 3219 3220 3221 3222 3222 3224 3225 3225 3225 3226 3226 3227
3154 3158 3162 3165 3168 3171 3174 3176 3178 3181 3183 3185 3187 3189 3191 3193 3195 3196 3198 3200 3202 3204 3205 3207 3209 3211 3213 3215 3216 3216 3216 3217 3217 3217 3218 3219 3221 3222 3222 3222 3223 3224 3224
3151 3155 3158 3162 3166 3169 3171 3173 3175 3178 3180 3183 3185 3186 3188 3190 3192 3193 3195 3197 3199 3201 3202 3204 3205 3207 3209 3211 3212 3213 3215 3215 3214 3215 3215 3216 3217 3219 3219 3219 3220 3220 3221
3149 3152 3156 3159 3163 3166 3168 3171 3173 3175 3177 3180 3182 3183 3186 3187 3189 3190 3192 3194 3195 3197 3198 3201 3203 3204 3204 3205 3207 3208 3210 3211 3212 3212 3213 3213 3214 3214 3216 3217 3217 3217 3218
3149 3151 3154 3157 3160 3163 3166 3168 3170 3172 3174 3176 3178 3180 3181 3183 3184 3187 3189 3190 3191 3193 3195 3196 3199 3200 3201 3202 3202 3204 3205 3207 3208 3210 3209 3211 3211 3212 3212 3213 3214 3214 3214
3149 3151 3153 3156 3158 3160 3163 3164 3167 3168 3170 3172 3174 3176 3177 3179 3181 3183 3184 3186 3188 3189 3190 3192 3195 3196 3197 3198 3200 3201 3202 3203 3205 3205 3206 3207 3207 3208 3208 3209 3210 3211 3210
3149 3150 3152 3154 3156 3157 3159 3161 3163 3164 3166 3168 3170 3171 3173 3175 3176 3178 3180 3181 3184 3185 3186 3187 3189 3190 3192 3194 3195 3196 3197 3199 3200 3201 3202 3203 3204 3204 3205 3205 3206 3206 3206
3146 3148 3149 3150 3152 3152 3154 3156 3157 3160 3162 3164 3165 3167 3168 3170 3172 3173 3174 3176 3178 3180 3181 3183 3184 3185 3186 3188 3190 3192 3193 3193 3195 3196 3196 3198 3199 3200 3200 3200 3201 3201 3201
3143 3145 3146 3147 3148 3149 3150 3152 3153 3156 3158 3160 3161 3161 3162 3163 3166 3167 3168 3170 3171 3173 3175 3176 3178 3179 3181 3182 3184 3186 3187 3189 3190 3192 3193 3193 3193 3195 3195 3196 3196 3196 3196
3139 3141 3143 3144 3145 3145 3147 3149 3151 3152 3154 3155 3156 3156 3156 3158 3160 3161 3162 3164 3165 3166 3167 3169 3170 3172 3174 3176 3178 3179 3181 3183 3185 3186 3186 3187 3188 3188 3189 3189 3190 3190 3190
3135 3137 3139 3140 3141 3142 3144 3147 3149 3151 3152 3152 3152 3152 3152 3153 3155 3155 3157 3158 3159 3159 3159 3159 3161 3162 3165 3169 3171 3173 3174 3176 3177 3179 3180 3180 3182 3183 3183 3183 3183 3183 3182
3131 3133 3135 3137 3137 3139 3142 3144 3146 3148 3149 3149 3149 3149 3148 3149 3149 3150 3152 3152 3152 3152 3150 3150 3150 3152 3157 3161 3163 3165 3167 3168 3170 3171 3172 3172 3174 3175 3177 3175 3175 3175 3175
3126 3128 3131 3133 3135 3136 3139 3141 3143 3145 3146 3146 3145 3144 3144 3144 3144 3145 3146 3146 3146 3146 3144 3142 3145 3147 3150 3153 3155 3157 3160 3161 3162 3164 3165 3165 3166 3166 3167 3166 3166 3166 3167
3122 3124 3126 3130 3132 3134 3136 3138 3140 3141 3142 3142 3141 3140 3139 3139 3139 3139 3139 3140 3140 3139 3139 3139 3140 3142 3143 3144 3149 3151 3153 3154 3155 3157 3157 3155 3156 3158 3158 3157 3157 3158 3157
3117 3120 3123 3125 3128 3130 3132 3134 3136 3137 3138 3138 3137 3136 3135 3134 3134 3134 3134 3135 3135 3136 3136 3136 3136 3137 3138 3139 3142 3145 3147 3148 3149 3149 3149 3148 3148 3147 3148 3148 3148 3148 3147
3112 3114 3117 3121 3124 3125 3128 3130 3131 3132 3133 3133 3132 3131 3130 3130 3129 3129 3130 3130 3130 3131 3132 3133 3133 3134 3134 3135 3137 3139 3140 3141 3141 3140 3140 3139 3138 3136 3134 3134 3136 3136 3136
3104 3107 3108 3113 3117 3120 3122 3125 3126 3127 3128 3128 3128 3127 3125 3124 3124 3124 3124 3125 3125 3126 3127 3128 3129 3130 3131 3132 3132 3133 3133 3134 3133 3133 3132 3130 3128 3126 3123 3122 3123 3124 3124
3097 3097 3098 3103 3109 3113 3116 3119 3121 3122 3123 3124 3123 3121 3120 3120 3120 3120 3120 3120 3120 3121 3123 3123 3125 3125 3126 3127 3127 3128 3129 3128 3127 3126 3124 3122 3120 3118 3116 3115 3113 3112 3111
3091 3088 3089 3095 3101 3106 3108 3111 3113 3116 3118 3118 3118 3117 3115 3115 3115 3116 3116 3116 3116 3117 3118 3119 3120 3121 3122 3122 3123 3123 3124 3123 3122 3120 3118 3115 3113 3110 3107 3105 3102 3101 3100